GSAT0102 (GALILEO-FM2)

Last updated on Thu Oct 30 2025 00:02:35 GMT+0000 (Coordinated Universal Time)

1 37847U 11060B 25302.22337919 -.00000065 00000+0 00000+0 0 9995 2 37847 57.0634 348.0298 0003876 301.7307 44.1460 1.70475941 87186
UTC large
Height (km)
Speed (km/s)
/
Latitude / Longitude
Inclination (degrees)
Orbital Period (minutes)
Azimuth
Elevation
Range (km)
Doppler Factor

Next 0 passes for location: London (51.5072 / 0.1276)

Sorry there are no passes over London.